Location: Pel�-Koumbol�
(14.9505°N, 3.0798°W)
Time: 17:43:05
(UTC+00:00)

Okean 3 Rocket - Pass Details

Date: 17 February 2020
Orbit: 614 x 646 km, 82.5° (Epoch: 03 April)

Event Time Altitude Azimuth Distance (km) Brightness Sun altitude
Exits shadow 04:51:33 44° 172° (S) 856 4.3 -25.7°
Drops below altitude 10° 04:54:35 10° 175° (S) 1,976 6.3 -25.0°
Sets 04:56:47 0° 175° (S) 2,876 7.1 -24.5°
